User: anonymous   Login
Location: Gombori
(14.9797°N, 2.9419°W)
Time: 03:17:42
(UTC+00:00)
Language:

Skynet4D Del rocket - Orbit

View from above orbital plane
View from above orbital plane
View from above satellite
View from above satellite

Ground track
Ground track

The orbit data is extracted from the following two-line orbital elements,

1 25135U 98002B   21293.57045130  .00000143  00000-0  23393-4 0  9999
2 25135  26.8878  34.3772 0356260 304.5539  72.2799 13.62406295184742
Epoch (UTC): 20 October 2021 13:41:26
Eccentricity: 0.0356260
inclination: 26.8878°
perigee height: 763 km
apogee height: 1291 km
right ascension of ascending node: 34.3772°
argument of perigee: 304.5539°
revolutions per day: 13.62406295
mean anomaly at epoch: 72.2799°
orbit number at epoch: 18474

The dashed part of the orbit path shows where the satellite is in the earth's shadow,  

DLR